When you browse on this site, cookies collect data to enhance your experience and personalize the content and advertising you see.
Visit our Privacy Policy to learn more. By continuing to use the site, you agree to this use of cookies and data.
  • In Germany
  • List of Countries
  • For 7 days
  • Water Temperature
  • Weather Map
  • Weather Widgets
  • user-avatar
    Login

    Hourly Weather Eisenstadt

    Today, 22 August, Thursday

    Time Temperature Precipitation Wind Pressure Humidity
    00:00 +16°C° 0.1 mm 3 mps 729 mmHg 81%
    01:00 +16°C° 0.1 mm 3 mps 729 mmHg 83%
    02:00 +14°C° 0.3 mm 3 mps 729 mmHg 85%
    03:00 +14°C° 0.3 mm 3 mps 728 mmHg 88%
    04:00 +14°C° 0.3 mm 2 mps 728 mmHg 90%
    05:00 +15°C° 0.3 mm 2 mps 728 mmHg 89%
    06:00 +16°C° 0.3 mm 2 mps 728 mmHg 87%
    07:00 +16°C° 0.3 mm 2 mps 729 mmHg 86%
    08:00 +18°C° 0.1 mm 2 mps 729 mmHg 79%
    09:00 +19°C° 0.1 mm 2 mps 729 mmHg 72%
    10:00 +21°C° 0.1 mm 2 mps 729 mmHg 65%
    11:00 +23°C° 0.1 mm 2 mps 729 mmHg 61%
    12:00 +24°C° 0.1 mm 2 mps 729 mmHg 58%
    13:00 +25°C° 0.1 mm 2 mps 729 mmHg 54%
    14:00 +25°C° 0.1 mm 2 mps 728 mmHg 56%
    15:00 +25°C° 0.1 mm 2 mps 728 mmHg 57%
    16:00 +25°C° 0.1 mm 2 mps 728 mmHg 58%
    17:00 +24°C° 0 mm 1 mps 728 mmHg 65%
    18:00 +22°C° 0 mm 1 mps 728 mmHg 71%
    19:00 +18°C° 0 mm 0 mps 728 mmHg 78%
    20:00 +20°C° 0 mm 1 mps 728 mmHg 79%
    21:00 +20°C° 0 mm 1 mps 728 mmHg 80%
    22:00 +19°C° 0 mm 1 mps 728 mmHg 80%
    23:00 +19°C° 0.3 mm 1 mps 728 mmHg 82%

    Tomorrow, 23 August, Friday

    Time Temperature Precipitation Wind Pressure Humidity
    00:00 +19°C° 0.3 mm 1 mps 728 mmHg 83%
    01:00 +19°C° 0.3 mm 1 mps 728 mmHg 84%
    02:00 +18°C° 0.4 mm 1 mps 728 mmHg 85%
    03:00 +18°C° 0.4 mm 1 mps 728 mmHg 87%
    04:00 +18°C° 0.4 mm 1 mps 728 mmHg 88%
    05:00 +19°C° 0.2 mm 1 mps 728 mmHg 87%
    06:00 +19°C° 0.2 mm 1 mps 728 mmHg 85%
    07:00 +20°C° 0.2 mm 1 mps 728 mmHg 83%
    08:00 +22°C° 0 mm 1 mps 729 mmHg 77%
    09:00 +23°C° 0 mm 1 mps 729 mmHg 72%
    10:00 +25°C° 0 mm 1 mps 729 mmHg 66%
    11:00 +26°C° 0 mm 1 mps 728 mmHg 64%
    12:00 +26°C° 0 mm 1 mps 728 mmHg 62%
    13:00 +27°C° 0 mm 1 mps 728 mmHg 60%
    14:00 +27°C° 0 mm 1 mps 728 mmHg 60%
    15:00 +27°C° 0 mm 1 mps 727 mmHg 59%
    16:00 +27°C° 0 mm 1 mps 727 mmHg 59%
    17:00 +26°C° 0 mm 1 mps 727 mmHg 66%
    18:00 +24°C° 0 mm 1 mps 726 mmHg 73%
    19:00 +23°C° 0 mm 1 mps 726 mmHg 80%
    20:00 +22°C° 0.1 mm 1 mps 726 mmHg 81%
    21:00 +22°C° 0.1 mm 1 mps 726 mmHg 82%
    22:00 +21°C° 0.1 mm 1 mps 726 mmHg 83%
    23:00 +21°C° 0 mm 1 mps 726 mmHg 83%

    Day after tomorrow, 24 August, Saturday

    Time Temperature Precipitation Wind Pressure Humidity
    00:00 +21°C° 0 mm 1 mps 726 mmHg 82%
    01:00 +21°C° 0 mm 1 mps 726 mmHg 82%
    02:00 +21°C° 0 mm 1 mps 726 mmHg 83%
    03:00 +21°C° 0 mm 1 mps 726 mmHg 84%
    04:00 +20°C° 0 mm 1 mps 726 mmHg 84%
    05:00 +21°C° 0 mm 1 mps 726 mmHg 81%
    06:00 +20°C° 0 mm 0 mps 726 mmHg 79%
    07:00 +21°C° 0 mm 0 mps 726 mmHg 76%
    08:00 +25°C° 0 mm 1 mps 726 mmHg 68%
    09:00 +26°C° 0 mm 1 mps 726 mmHg 61%
    10:00 +28°C° 0 mm 2 mps 727 mmHg 54%
    11:00 +28°C° 0.1 mm 2 mps 726 mmHg 52%
    12:00 +29°C° 0.1 mm 2 mps 726 mmHg 51%
    13:00 +30°C° 0.1 mm 3 mps 726 mmHg 50%
    14:00 +30°C° 0.6 mm 3 mps 725 mmHg 50%
    15:00 +30°C° 0.6 mm 2 mps 725 mmHg 51%
    16:00 +30°C° 0.6 mm 2 mps 725 mmHg 52%
    17:00 +28°C° 0.2 mm 2 mps 724 mmHg 58%
    18:00 +26°C° 0.2 mm 2 mps 724 mmHg 64%
    19:00 +24°C° 0.2 mm 2 mps 724 mmHg 70%
    20:00 +23°C° 0.6 mm 1 mps 724 mmHg 73%
    21:00 +22°C° 0.6 mm 1 mps 724 mmHg 77%
    22:00 +21°C° 0.6 mm 1 mps 724 mmHg 81%
    23:00 +21°C° 0.1 mm 1 mps 724 mmHg 81%

    25 August, Sunday

    Time Temperature Precipitation Wind Pressure Humidity
    00:00 +21°C° 0.1 mm 1 mps 724 mmHg 80%
    01:00 +21°C° 0.1 mm 1 mps 724 mmHg 80%
    02:00 +21°C° 0 mm 1 mps 724 mmHg 80%
    03:00 +21°C° 0 mm 1 mps 724 mmHg 81%
    04:00 +20°C° 0 mm 1 mps 724 mmHg 81%
    05:00 +21°C° 0 mm 1 mps 724 mmHg 79%
    06:00 +20°C° 0 mm 0 mps 724 mmHg 77%
    07:00 +21°C° 0 mm 0 mps 724 mmHg 75%
    08:00 +25°C° 0 mm 1 mps 724 mmHg 67%
    09:00 +27°C° 0 mm 1 mps 725 mmHg 59%
    10:00 +28°C° 0 mm 2 mps 725 mmHg 51%
    11:00 +29°C° 0.1 mm 2 mps 725 mmHg 50%
    12:00 +30°C° 0.1 mm 2 mps 725 mmHg 48%
    13:00 +31°C° 0.1 mm 2 mps 724 mmHg 46%
    14:00 +31°C° 0.2 mm 2 mps 724 mmHg 47%
    15:00 +31°C° 0.2 mm 2 mps 724 mmHg 47%
    16:00 +31°C° 0.2 mm 1 mps 723 mmHg 47%
    17:00 +28°C° 0.2 mm 1 mps 723 mmHg 54%
    18:00 +26°C° 0.2 mm 1 mps 723 mmHg 60%
    19:00 +24°C° 0.2 mm 1 mps 723 mmHg 67%
    20:00 +24°C° 0.7 mm 1 mps 723 mmHg 70%
    21:00 +23°C° 0.7 mm 1 mps 724 mmHg 73%
    22:00 +22°C° 0.7 mm 1 mps 724 mmHg 76%
    23:00 +22°C° 0.1 mm 1 mps 724 mmHg 76%

    26 August, Monday

    Time Temperature Precipitation Wind Pressure Humidity
    00:00 +22°C° 0.1 mm 1 mps 724 mmHg 76%
    01:00 +21°C° 0.1 mm 1 mps 724 mmHg 77%
    02:00 +21°C° 0 mm 1 mps 724 mmHg 77%
    03:00 +21°C° 0 mm 1 mps 724 mmHg 78%
    04:00 +20°C° 0 mm 1 mps 724 mmHg 79%
    05:00 +21°C° 0 mm 1 mps 724 mmHg 78%
    06:00 +22°C° 0 mm 1 mps 724 mmHg 76%
    07:00 +23°C° 0 mm 1 mps 725 mmHg 75%
    08:00 +25°C° 0.1 mm 1 mps 725 mmHg 69%
    09:00 +26°C° 0.1 mm 2 mps 725 mmHg 62%
    10:00 +28°C° 0.1 mm 2 mps 726 mmHg 56%
    11:00 +29°C° 0.4 mm 2 mps 726 mmHg 53%
    12:00 +30°C° 0.4 mm 2 mps 726 mmHg 51%
    13:00 +30°C° 0.4 mm 2 mps 726 mmHg 48%
    14:00 +31°C° 0.2 mm 1 mps 725 mmHg 47%
    15:00 +31°C° 0.2 mm 1 mps 725 mmHg 47%
    16:00 +31°C° 0.2 mm 1 mps 725 mmHg 46%
    17:00 +29°C° 0.2 mm 1 mps 725 mmHg 52%
    18:00 +27°C° 0.2 mm 1 mps 725 mmHg 58%
    19:00 +25°C° 0.2 mm 1 mps 725 mmHg 64%
    20:00 +24°C° 0.6 mm 1 mps 725 mmHg 68%
    21:00 +23°C° 0.6 mm 1 mps 725 mmHg 72%
    22:00 +22°C° 0.6 mm 1 mps 726 mmHg 77%
    23:00 +22°C° 0.3 mm 1 mps 726 mmHg 77%

    27 August, Tuesday

    Time Temperature Precipitation Wind Pressure Humidity
    00:00 +22°C° 0.3 mm 1 mps 726 mmHg 78%
    01:00 +21°C° 0.3 mm 1 mps 726 mmHg 79%
    02:00 +21°C° 0 mm 1 mps 725 mmHg 79%
    03:00 +21°C° 0 mm 1 mps 725 mmHg 79%
    04:00 +20°C° 0 mm 2 mps 725 mmHg 80%
    05:00 +21°C° 0 mm 2 mps 725 mmHg 78%
    06:00 +21°C° 0 mm 2 mps 726 mmHg 77%
    07:00 +23°C° 0 mm 2 mps 726 mmHg 75%
    08:00 +25°C° 0.1 mm 2 mps 726 mmHg 68%
    09:00 +27°C° 0.1 mm 2 mps 727 mmHg 61%
    10:00 +29°C° 0.1 mm 2 mps 727 mmHg 54%
    11:00 +30°C° 0.2 mm 2 mps 727 mmHg 51%
    12:00 +31°C° 0.2 mm 2 mps 726 mmHg 48%
    13:00 +31°C° 0.2 mm 2 mps 726 mmHg 45%
    14:00 +31°C° 0.3 mm 2 mps 726 mmHg 45%
    15:00 +31°C° 0.3 mm 2 mps 725 mmHg 45%
    16:00 +31°C° 0.3 mm 2 mps 725 mmHg 45%
    17:00 +29°C° 0.1 mm 2 mps 725 mmHg 50%
    18:00 +27°C° 0.1 mm 1 mps 724 mmHg 54%
    19:00 +25°C° 0.1 mm 1 mps 724 mmHg 59%
    20:00 +25°C° 0 mm 1 mps 724 mmHg 60%
    21:00 +24°C° 0 mm 1 mps 724 mmHg 61%
    22:00 +23°C° 0 mm 1 mps 725 mmHg 63%
    23:00 +23°C° 0 mm 1 mps 725 mmHg 64%
    Show more